Peyton, CO

2:08 PM MDT on August 28, 2016 (GMT -0600)
Meadow Lake

Weather History for KFLY - March, 2014

Change the Weather History Date:

Thursday, March 20, 2014

  Actual Average (KCOS) Record (KCOS)
Temperature  
Mean Temperature 44 °F 40 °F  
Max Temperature 64 °F 53 °F 74 °F (1907)
Min Temperature 25 °F 27 °F -2 °F (1965)
Degree Days  
Heating Degree Days 21 25  
Month to date heating degree days 546  
Since 1 July heating degree days 5109  
Cooling Degree Days 0 0  
Month to date cooling degree days 0  
Year to date cooling degree days 0  
Moisture  
Dew Point -4 °F    
Average Humidity 15    
Maximum Humidity 50    
Minimum Humidity 5    
Precipitation  
Precipitation 0.00 in 0.03 in 0.73 in (1979)
Month to date precipitation 0.61  
Year to date precipitation 1.27  
Snow  
Snow 0.00 in 0.30 in 6.00 in (1979)
Month to date snowfall 5.1  
Since 1 July snowfall 29.1  
Snow Depth -    
Sea Level Pressure  
Sea Level Pressure 29.97 in    
Wind  
Wind Speed 9 mph (West)    
Max Wind Speed 23 mph    
Max Gust Speed 32 mph    
Visibility 10 miles    
Events      
T = Trace of Precipitation, MM = Missing Value Source: NWS Daily Summary

Daily Weather History Graph

Daily Weather History Graph

Search for Another Location

Airport or City:

Trip Planner

Search our weather history database for the weather conditions in past years. The results will help you decide how hot, cold, wet, or windy it might be!

Date:

Astronomy

Mar. 20, 2014 Rise Set
Actual Time 7:01 AM MDT 7:10 PM MDT
Civil Twilight 6:35 AM MDT 7:36 PM MDT
Nautical Twilight 6:03 AM MDT 8:08 PM MDT
Astronomical Twilight 5:32 AM MDT 8:39 PM MDT
Moon 11:30 PM MDT (3/20) 9:11 AM MDT (3/20)
Length of Visible Light 13h 01m
Length of Day
12h 08m
Waning Gibbous, 83% of the Moon is Illuminated
Mar 20
Waning Gibbous
Mar 23
Last Quarter
Mar 30
New
Apr 7
First Quarter
Apr 15
Full

Hourly Weather History & Observations

Time (MDT) Temp. Windchill Dew Point Humidity Pressure Visibility Wind Dir Wind Speed Gust Speed Precip Events Conditions
12:10 AM 25.0 °F 19.3 °F 8.4 °F 50% 30.05 in 10.0 mi NNW 4.6 mph - N/A   Clear
12:30 AM 25.3 °F 18.5 °F 8.4 °F 49% 30.04 in 10.0 mi NNW 5.8 mph - N/A   Clear
12:50 AM 25.7 °F 18.0 °F 8.8 °F 49% 30.03 in 10.0 mi NNW 6.9 mph - N/A   Clear
1:10 AM 29.1 °F 24.1 °F 4.6 °F 35% 30.03 in 10.0 mi North 4.6 mph - N/A   Clear
1:30 AM 26.4 °F 19.8 °F 4.5 °F 39% 30.03 in 10.0 mi WNW 5.8 mph - N/A   Clear
1:50 AM 29.7 °F 24.7 °F 2.3 °F 31% 30.02 in 10.0 mi NW 4.6 mph - N/A   Clear
2:10 AM 31.8 °F - 0.1 °F 26% 30.03 in 10.0 mi Calm Calm - N/A   Clear
2:30 AM 29.5 °F 23.4 °F 1.2 °F 30% 30.03 in 10.0 mi NNE 5.8 mph - N/A   Clear
2:50 AM 30.4 °F 24.5 °F -0.0 °F 27% 30.03 in 10.0 mi North 5.8 mph - N/A   Clear
3:10 AM 29.3 °F 23.2 °F 0.7 °F 29% 30.03 in 10.0 mi North 5.8 mph - N/A   Clear
3:30 AM 30.0 °F 23.2 °F -0.8 °F 27% 30.03 in 10.0 mi North 6.9 mph - N/A   Clear
3:50 AM 30.2 °F 24.3 °F -0.4 °F 27% 30.03 in 10.0 mi NNW 5.8 mph - N/A   Clear
4:10 AM 31.6 °F 23.1 °F -2.4 °F 23% 30.02 in 10.0 mi WNW 10.4 mph - N/A   Clear
4:30 AM 35.1 °F 27.4 °F -5.6 °F 17% 30.02 in 10.0 mi WNW 10.4 mph - N/A   Clear
4:50 AM 34.0 °F 26.0 °F -6.3 °F 18% 30.03 in 10.0 mi NW 10.4 mph - N/A   Clear
5:10 AM 32.9 °F 27.5 °F -6.7 °F 18% 30.03 in 10.0 mi NNW 5.8 mph - N/A   Clear
5:30 AM 28.2 °F 19.5 °F -6.3 °F 22% 30.02 in 10.0 mi WNW 9.2 mph - N/A   Clear
5:50 AM 30.6 °F 21.8 °F -6.7 °F 20% 30.02 in 10.0 mi WNW 10.4 mph - N/A   Clear
6:10 AM 30.6 °F 21.8 °F -7.2 °F 19% 30.02 in 10.0 mi WNW 10.4 mph - N/A   Clear
6:30 AM 31.3 °F 23.9 °F -8.5 °F 18% 30.02 in 10.0 mi WNW 8.1 mph - N/A   Clear
6:50 AM 32.0 °F 24.2 °F -10.5 °F 16% 30.03 in 10.0 mi WNW 9.2 mph - N/A   Clear
7:10 AM 31.8 °F 23.9 °F -8.0 °F 18% 30.03 in 10.0 mi WNW 9.2 mph - N/A   Clear
7:30 AM 31.8 °F 24.6 °F -6.9 °F 19% 30.04 in 10.0 mi West 8.1 mph - N/A   Clear
7:50 AM 32.2 °F 24.4 °F -5.3 °F 20% 30.05 in 10.0 mi WSW 9.2 mph - N/A   Clear
8:10 AM 36.1 °F 31.4 °F -2.0 °F 20% 30.05 in 10.0 mi West 5.8 mph - N/A   Clear
8:30 AM 42.3 °F 39.4 °F -2.7 °F 15% 30.04 in 10.0 mi WSW 4.6 mph - N/A   Clear
8:50 AM 45.5 °F 41.8 °F -5.6 °F 12% 30.04 in 10.0 mi South 6.9 mph - N/A   Clear
9:10 AM 46.8 °F - -7.1 °F 10% 30.04 in 10.0 mi South 6.9 mph - N/A   Clear
9:30 AM 46.8 °F - -8.1 °F 10% 30.04 in 10.0 mi SSE 9.2 mph - N/A   Clear
9:49 AM 46.8 °F - -7.6 °F 10% 30.04 in 10.0 mi SSE 9.2 mph - N/A   Clear
10:10 AM 47.1 °F - -7.8 °F 10% 30.03 in 10.0 mi SSE 8.1 mph - N/A   Clear
10:30 AM 49.3 °F - -6.3 °F 10% 30.02 in 10.0 mi SE 4.6 mph - N/A   Clear
10:50 AM 50.2 °F - -6.2 °F 10% 30.01 in 10.0 mi SSE 9.2 mph - N/A   Clear
11:10 AM 52.5 °F - -7.6 °F 8% 30.00 in 10.0 mi SSE 9.2 mph - N/A   Clear
11:30 AM 54.1 °F - -5.4 °F 9% 30.00 in 10.0 mi South 9.2 mph - N/A   Clear
11:50 AM 53.6 °F - -6.7 °F 8% 29.99 in 10.0 mi South 11.5 mph 17.3 mph N/A   Clear
12:10 PM 55.4 °F - -4.2 °F 9% 29.98 in 10.0 mi SSW 13.8 mph - N/A   Clear
12:30 PM 56.1 °F - -3.1 °F 9% 29.97 in 10.0 mi SW 9.2 mph 18.4 mph N/A   Clear
12:50 PM 57.4 °F - -2.9 °F 9% 29.96 in 10.0 mi South 13.8 mph 21.9 mph N/A   Clear
1:10 PM 59.5 °F - -1.7 °F 8% 29.95 in 10.0 mi South 16.1 mph 24.2 mph N/A   Clear
1:30 PM 60.8 °F - -3.1 °F 8% 29.93 in 10.0 mi South 12.7 mph 21.9 mph N/A   Clear
1:50 PM 61.0 °F - -3.6 °F 7% 29.92 in 10.0 mi SSW 15.0 mph 23.0 mph N/A   Clear
2:10 PM 61.7 °F - -3.3 °F 7% 29.91 in 10.0 mi SSW 17.3 mph 24.2 mph N/A   Clear
2:30 PM 61.9 °F - -3.8 °F 7% 29.90 in 10.0 mi South 19.6 mph 24.2 mph N/A   Clear
2:50 PM 63.1 °F - -3.3 °F 7% 29.89 in 10.0 mi SSW 17.3 mph 28.8 mph N/A   Clear
3:10 PM 61.9 °F - -4.7 °F 7% 29.88 in 10.0 mi South 15.0 mph 23.0 mph N/A   Clear
3:30 PM 62.8 °F - -10.1 °F 5% 29.88 in 10.0 mi WSW 19.6 mph 28.8 mph N/A   Clear
3:50 PM 61.2 °F - -9.0 °F 6% 29.88 in 10.0 mi West 16.1 mph 26.5 mph N/A   Clear
4:10 PM 60.1 °F - -10.8 °F 5% 29.87 in 10.0 mi West 15.0 mph 27.6 mph N/A   Clear
4:30 PM 61.9 °F - -10.8 °F 5% 29.87 in 10.0 mi West 23.0 mph 32.2 mph N/A   Clear
4:50 PM 59.7 °F - -8.9 °F 6% 29.86 in 10.0 mi West 19.6 mph 32.2 mph N/A   Clear
5:10 PM 61.2 °F - -8.5 °F 6% 29.87 in 10.0 mi West 20.7 mph 27.6 mph N/A   Clear
5:30 PM 59.4 °F - -9.2 °F 6% 29.87 in 10.0 mi West 20.7 mph 29.9 mph N/A   Clear
5:50 PM 59.4 °F - -8.3 °F 6% 29.88 in 10.0 mi West 19.6 mph 26.5 mph N/A   Clear
6:10 PM 58.6 °F - -9.2 °F 6% 29.88 in 10.0 mi West 19.6 mph 31.1 mph N/A   Clear
6:30 PM 57.0 °F - -7.4 °F 7% 29.88 in 10.0 mi WNW 15.0 mph 23.0 mph N/A   Clear
6:50 PM 54.7 °F - -6.7 °F 8% 29.90 in 10.0 mi WNW 10.4 mph 16.1 mph N/A   Clear
7:10 PM 51.1 °F - -6.5 °F 9% 29.90 in 10.0 mi NW 3.5 mph - N/A   Clear
7:30 PM 48.4 °F - -5.8 °F 10% 29.91 in 10.0 mi North 5.8 mph - N/A   Clear
7:50 PM 47.7 °F - -3.5 °F 12% 29.91 in 10.0 mi North 10.4 mph - N/A   Clear
8:10 PM 47.5 °F - -0.0 °F 14% 29.93 in 10.0 mi NW 4.6 mph - N/A   Clear
8:30 PM 48.9 °F - -3.8 °F 11% 29.92 in 10.0 mi SW 5.8 mph - N/A   Clear
8:50 PM 50.4 °F - -7.2 °F 9% 29.92 in 10.0 mi West 10.4 mph - N/A   Clear
9:10 PM 45.3 °F 41.6 °F -5.3 °F 12% 29.93 in 10.0 mi NNW 6.9 mph - N/A   Clear
9:30 PM 45.0 °F 40.1 °F -4.4 °F 13% 29.92 in 10.0 mi NNW 9.2 mph - N/A   Clear
9:50 PM 43.5 °F 38.3 °F -4.0 °F 14% 29.92 in 10.0 mi NNW 9.2 mph - N/A   Clear
10:10 PM 40.3 °F 34.9 °F -3.6 °F 16% 29.92 in 10.0 mi NNW 8.1 mph - N/A   Clear
10:30 PM 42.1 °F 36.1 °F -4.2 °F 14% 29.92 in 10.0 mi North 10.4 mph - N/A   Clear
10:50 PM 42.8 °F 35.8 °F -4.7 °F 14% 29.92 in 10.0 mi WNW 13.8 mph - N/A   Clear
11:10 PM 43.2 °F 35.9 °F -5.8 °F 13% 29.92 in 10.0 mi WNW 15.0 mph - N/A   Clear
11:30 PM 43.3 °F 38.1 °F -5.8 °F 13% 29.93 in 10.0 mi NW 9.2 mph - N/A   Clear
11:50 PM 38.3 °F 31.9 °F -3.5 °F 17% 29.92 in 10.0 mi NW 9.2 mph - N/A   Clear